RH
66 77 84 82 85 85 94 99 99 99 100 100 97 100 100 100 99 100 99 99 100 99 99 100 100 97 94 87 93 92 96 96 96 92 82 77 53 35
60 65 72 85 92 92 97 99 89 100 100 100 100 99 99 99 99 99 99 98 100 99 99 100 98 93 84 84 90 92 94 97 99 97 88 51 30 22
86 90 73 75 88 94 99 99 99 100 99 99 100 99 98 99 99 99 98 99 100 100 100 100 94 87 85 85 84 86 86 79 66 51 28 21 20 18
52 55 72 88 87 97 100 100 100 98 100 94 99 99 98 96 99 99 99 98 98 96 97 91 86 86 86 60 31 24 23 22 21 20 17 15 13 12
80 49 51 54 80 98 100 100 100 100 92 98 97 99 99 99 99 100 100 99 96 94 95 84 62 30 28 26 21 18 17 16 14 12 11 10 9 9
62 50 43 50 55 99 99 97 99 99 91 99 100 100 100 98 96 96 95 90 84 54 31 23 18 15 12 9 8 8 8 8 8 8 8 8 8 9
48 46 58 69 90 76 100 100 100 89 95 100 100 100 95 92 90 84 60 28 20 12 5 4 2 3 4 5 5 6 6 6 8 10 14 19 24 28
50 63 100 100 93 92 89 81 100 99 100 100 98 94 86 53 23 19 7 2 2 3 3 4 4 5 6 8 12 16 22 28 32 32 33 34 31 28
84 92 100 100 100 100 100 100 100 100 99 83 43 23 14 6 2 2 3 4 6 8 10 12 13 18 21 28 33 35 35 34 33 35 35 34 32 31
96 99 96 96 100 99 97 97 93 59 28 21 10 3 2 3 5 8 10 12 16 19 19 22 27 31 34 38 37 36 32 31 36 40 39 36 34 34
97 100 100 99 100 98 72 32 24 19 9 3 2 3 7 10 13 16 18 21 24 29 28 25 32 29 36 40 39 37 41 45 49 47 46 45 44 45
45 49 43 27 25 24 20 14 6 2 2 2 5 9 13 17 20 23 25 27 28 31 33 30 36 33 28 38 42 41 42 41 43 46 49 51 46 39
8 8 7 4 3 2 2 2 2 2 3 6 11 16 19 22 27 29 30 31 33 34 34 31 35 35 30 27 32 37 37 40 43 49 54 44 34 37
2 2 2 2 2 2 2 2 2 4 7 12 18 21 24 28 31 35 36 37 36 38 40 36 34 38 37 34 32 34 43 46 48 47 34 28 31 33
2 3 3 2 2 2 2 3 4 6 11 18 24 28 33 36 41 44 44 43 42 43 42 41 43 44 45 41 37 39 48 46 39 27 29 31 30 36
3 3 3 3 3 3 3 4 6 10 17 25 30 36 41 45 50 51 51 49 47 47 46 49 53 50 48 48 44 44 55 49 32 33 44 33 32 53
3 3 3 3 3 4 4 6 9 16 25 32 38 47 50 54 57 56 56 55 53 51 50 54 61 58 57 54 50 58 58 53 37 39 44 27 35 60
3 3 3 3 4 5 7 10 17 28 34 40 50 51 55 58 60 61 61 61 59 57 54 55 59 62 62 55 61 51 56 52 30 31 42 29 26 47
3 4 4 5 8 11 14 19 29 34 42 54 55 57 62 64 66 68 69 69 67 64 61 62 66 72 66 58 53 55 64 55 32 29 55 49 34 45
4 4 5 9 12 16 22 31 34 43 54 53 55 67 70 69 71 72 75 75 75 74 68 68 75 78 77 73 54 45 78 54 51 64 67 52 42 52
5 6 8 13 17 24 29 31 40 49 48 57 71 73 76 75 75 77 77 80 81 81 76 75 83 85 81 79 58 53 59 52 67 69 62 47 40 45
9 12 14 17 22 27 34 41 44 53 72 74 76 79 83 83 82 82 84 82 85 86 81 80 82 82 77 62 57 59 38 44 48 48 58 53 55 58
15 17 20 25 32 37 40 49 69 75 78 78 81 86 88 88 93 92 90 92 93 87 86 79 80 78 59 62 66 44 40 40 39 42 48 64 71 87
Wind_Speed
49 47 47 48 47 49 49 51 50 55 54 54 50 51 57 56 43 51 45 44 46 41 45 45 48 47 48 51 52 52 52 52 53 51 51 51 50 49
44 43 47 45 45 45 47 52 60 55 57 56 49 51 48 52 44 40 42 37 45 46 47 48 49 50 50 50 50 50 50 50 51 52 53 52 51 50
35 36 39 43 43 43 44 49 53 54 49 54 51 44 40 41 40 36 38 40 45 44 44 44 46 46 46 47 48 50 51 51 50 51 50 50 51 51
30 32 31 33 37 38 39 43 44 40 38 35 38 37 37 33 34 37 37 38 40 41 40 42 44 46 48 49 50 48 48 48 49 49 50 50 49 49
31 32 32 30 34 38 40 39 36 25 33 27 30 32 33 37 33 33 35 37 37 38 40 45 47 49 50 50 50 49 49 49 48 49 49 48 48 47
31 28 31 33 30 31 25 26 17 22 29 29 32 29 28 30 31 32 33 36 39 41 44 47 48 50 50 49 48 48 47 46 45 44 44 43 42 41
27 28 28 27 25 26 27 25 25 28 28 27 28 26 27 28 32 36 38 40 42 43 47 41 41 38 35 33 32 32 33 33 32 32 31 31 31 31
25 26 23 22 24 27 29 36 27 27 29 26 25 27 30 33 36 38 41 37 30 26 27 22 26 21 21 19 19 20 21 24 26 29 31 33 33 34
23 21 18 19 22 29 30 28 28 29 29 26 27 31 33 34 29 22 20 18 19 21 22 18 23 18 17 17 19 21 23 27 30 31 31 32 33 33
22 22 21 21 22 23 28 24 23 25 27 30 31 30 23 16 15 16 18 18 20 21 25 21 21 19 17 17 21 22 25 28 29 30 32 33 34 35
14 19 20 19 21 23 25 26 28 31 32 30 23 12 12 14 16 18 20 19 19 20 25 27 23 23 18 16 19 21 25 28 29 30 32 34 36 38
17 19 21 23 26 28 31 32 32 32 26 16 10 12 13 15 17 17 19 20 22 20 25 26 22 27 23 13 16 20 24 26 28 30 33 34 36 39
22 25 27 30 31 31 31 30 27 21 14 11 11 11 13 15 17 19 21 22 22 23 27 28 21 23 26 26 14 19 22 24 29 30 33 35 35 36
23 24 24 25 26 26 24 21 17 14 13 12 12 13 15 18 19 21 21 23 24 23 24 27 25 26 28 28 28 20 23 25 30 32 35 33 33 31
24 24 25 25 25 23 20 17 15 15 15 14 14 16 17 19 21 22 23 25 24 23 25 27 28 29 31 32 35 28 33 26 31 33 33 33 31 28
24 24 24 23 22 20 18 17 16 16 16 16 17 18 19 21 23 25 24 25 24 23 25 26 28 30 31 33 36 34 31 36 34 33 35 33 29 28
27 25 24 22 20 19 18 17 17 17 17 18 18 19 20 22 23 25 26 26 25 24 23 25 28 30 32 35 36 35 35 35 36 35 34 31 24 24
27 25 24 22 19 19 19 18 18 17 18 19 20 21 22 23 23 24 27 28 27 26 26 26 28 31 33 32 36 36 34 37 36 33 33 35 30 24
27 25 23 21 19 19 19 18 17 18 18 20 22 23 25 25 26 26 28 29 28 28 27 28 29 34 38 39 34 35 39 40 39 35 34 35 36 29
26 24 22 21 21 20 19 19 19 20 21 23 25 26 27 28 28 28 29 30 30 29 28 28 30 34 38 41 43 37 35 41 40 38 34 34 34 28
23 22 21 20 19 19 20 20 21 22 24 26 28 28 29 30 29 30 31 31 32 32 31 29 30 34 38 43 45 43 39 37 35 37 35 36 34 31
21 20 20 19 19 20 20 21 22 25 26 28 29 29 30 31 31 32 32 32 32 32 31 31 32 36 39 43 45 45 43 35 34 31 29 30 34 37
20 20 20 19 19 20 21 22 23 25 27 29 30 30 30 30 31 32 32 32 32 32 33 34 36 39 42 43 45 45 41 36 32 29 28 26 28 31
Wind_Direction
270 271 271 271 270 269 267 267 263 261 259 263 272 276 260 258 266 263 265 271 280 277 275 276 280 283 284 284 285 284 284 283 281 279 279 282 280 278
274 274 270 271 272 271 270 268 271 273 268 262 268 274 272 266 269 274 277 282 279 283 280 280 281 285 287 288 289 287 286 285 281 279 280 280 279 278
278 275 272 271 271 270 269 268 269 270 275 277 279 282 283 289 275 278 281 282 280 280 282 286 288 289 290 289 288 287 286 284 282 280 279 279 278 277
292 286 284 277 272 271 270 274 275 292 287 283 281 284 297 285 280 281 284 280 281 285 291 290 289 291 288 287 287 286 283 281 280 280 279 278 277 276
293 292 283 282 283 273 264 263 276 288 294 287 298 279 280 279 283 282 283 286 290 290 288 286 286 285 284 284 283 282 282 282 281 280 279 279 278 278
293 284 288 280 281 283 278 289 277 292 291 291 285 283 284 283 286 289 291 290 289 288 287 285 285 285 285 284 284 284 283 283 282 280 280 279 279 277
291 288 286 280 277 282 289 287 303 301 286 286 289 295 295 294 295 293 292 290 289 289 286 289 287 289 289 288 287 286 285 283 283 284 283 283 283 283
280 290 280 271 276 276 287 288 287 286 292 293 295 291 294 294 293 292 289 291 292 289 291 294 294 299 297 298 295 293 292 293 292 291 291 291 290 288
287 286 276 275 273 281 283 282 285 289 291 295 297 298 297 294 295 298 299 304 302 300 300 301 299 303 300 298 294 294 293 291 291 294 296 295 293 290
293 276 288 283 284 284 286 293 294 297 299 299 301 301 302 303 309 308 306 306 300 300 299 301 297 299 296 294 292 294 293 294 296 298 298 297 295 293
290 282 289 293 293 291 296 301 300 299 301 302 301 299 305 311 311 309 309 309 304 303 300 302 304 298 299 292 290 292 292 293 294 292 292 293 293 291
318 310 302 303 301 298 297 296 297 298 297 292 291 301 301 302 306 308 308 308 307 306 296 299 305 304 303 293 289 284 284 289 291 291 292 291 291 289
298 294 293 292 292 293 295 297 295 289 277 272 276 283 295 303 308 310 310 309 309 307 300 303 309 306 308 311 310 295 292 290 289 292 291 292 291 290
317 311 308 305 304 302 299 294 284 270 268 270 278 291 298 304 307 306 307 308 308 304 299 302 309 310 313 315 317 317 308 301 299 298 296 296 296 294
323 320 316 312 308 305 301 294 281 274 273 276 282 290 298 305 308 308 310 309 309 303 301 303 308 311 315 316 316 324 313 307 307 304 303 302 302 295
325 320 316 311 304 297 289 281 275 273 275 279 286 294 302 308 310 311 311 308 307 300 297 298 301 306 310 311 312 319 316 316 315 311 306 307 301 297
329 324 318 310 303 295 287 282 278 278 281 286 293 299 303 304 305 306 307 306 305 299 293 293 298 302 305 308 312 316 317 315 313 310 306 301 296 296
328 325 320 314 306 299 294 289 286 286 287 289 291 294 298 301 304 306 306 306 305 300 297 295 297 298 299 303 312 313 314 314 312 308 310 308 305 304
329 327 325 319 312 306 299 292 289 289 289 290 296 301 304 305 306 306 305 306 305 302 300 299 299 301 303 305 309 315 315 316 314 311 307 303 301 302
330 328 325 320 315 310 305 301 298 296 298 302 305 306 306 306 306 305 304 305 304 302 300 298 299 300 304 308 309 314 318 315 309 303 301 295 294 294
328 327 324 320 317 312 307 304 302 302 304 306 307 307 307 306 306 305 304 304 304 304 303 302 302 302 305 307 307 309 314 312 304 301 301 298 298 295
330 328 325 323 319 315 311 308 307 308 308 308 309 309 308 309 308 307 307 306 304 303 303 302 302 302 303 305 307 310 312 308 303 297 296 298 298 297
330 328 327 325 321 316 312 310 309 309 309 309 310 310 309 309 308 308 308 306 305 304 304 303 302 304 305 307 307 307 306 311 308 304 300 296 288 288